Location: Fauquembergues
(50.6005°N, 2.0987°E)
Time: 10:58:44
(UTC+00:00)

Meteor 1-11 Rocket - Pass Details

Date: 14 July 2020
Orbit: 831 x 915 km, 81.2° (Epoch: 05 August)

Event Time Altitude Azimuth Distance (km) Brightness Sun altitude
Exits shadow 02:04:15 13° 181° (S) 2,232 5.4 -12.6°
Maximum altitude 02:09:11 72° 99° (E) 879 3.9 -12.2°
Drops below altitude 10° 02:14:42 10° 16° (NNE) 2,456 7.5 -11.7°
Sets 02:17:08 0° 14° (NNE) 3,400 8.4 -11.5°
